[[{"header":{"parameterUnit":"m.s-1","parameterCategory":1,"la1":30.2991,"la2":30.254,"lo1":-89.0895,"lo2":-89.0444,"dy":0.0017,"dx":0.0017,"nx":28,"ny":28,"refTime":"2024-08-12T09:00:00:Z","depth":0,"parameterNumber":2,"parameterNumberName":"U-component_of_WINDS"},"data":[0,0,0,0,0,0,0,0,0,0,0,0,0,0,0,0,0,0,0,0,0,0,0,0,0,0,0,0,0,0,0,0,0,0,0,0,0,0,0,0,0,0,0,0,0,0,0,0,0,0,0,0,0,0,0,0,0,0,1.8285,1.8287,0,1.8417,1.8419,1.842,1.8451,1.845,1.8449,1.8449,1.8585,1.8589,1.8593,0,0,0,0,0,0,0,0,0,0,0,0,0,1.8059,1.8063,1.8285,1.8287,1.8289,1.8417,1.8419,1.8421,1.8451,1.845,1.8449,1.8448,1.8583,1.8588,1.8594,0,0,0,0,0,0,0,0,0,0,0,0,0,1.8171,1.8065,1.8285,1.8319,1.8324,1.8417,1.8419,1.8421,1.8452,1.845,1.8449,1.8448,1.8581,1.8588,1.8595,1.8663,0,0,1.8615,1.8618,0,0,0,0,0,0,0,0,1.8165,1.8179,1.8313,1.8317,1.8322,1.8416,1.8389,1.8502,1.8452,1.8403,1.8449,1.8447,1.853,1.8541,1.8568,1.8669,1.8675,1.8616,1.862,1.8623,1.8624,0,0,0,0,0,0,0,1.8157,1.8174,1.8338,1.8315,1.832,1.8328,1.8342,1.8411,1.8472,1.8407,1.841,1.8425,1.8532,1.8562,1.8572,1.8677,1.8615,1.8621,1.8626,1.8628,1.8839,1.8841,0,0,0,0,0,0,1.8143,1.8167,1.8333,1.8342,1.8238,1.8333,1.8349,1.8388,1.8472,1.8483,1.8426,1.8426,1.8551,1.8564,1.8577,1.8661,1.8622,1.8629,1.8633,1.8838,1.884,1.8842,0,0,0,0,0,0,1.8138,1.8158,1.8328,1.8255,1.8277,1.8339,1.8381,1.8391,1.8421,1.8486,1.8497,1.8445,1.8551,1.8567,1.8641,1.8666,1.8632,1.8638,1.8836,1.8838,1.8841,1.8831,0,0,0,0,0,0,1.8131,1.8156,1.8182,1.8255,1.8281,1.839,1.8383,1.8394,1.8432,1.8433,1.8507,1.8518,1.8551,1.8631,1.8648,1.8675,1.8643,1.8834,1.8837,1.884,1.8829,1.8833,1.8836,0,0,0,0,0,1.8123,1.8175,1.8184,1.8204,1.8316,1.8391,1.8406,1.8443,1.8434,1.8461,1.8503,1.8515,1.8661,1.8638,1.8657,1.8687,1.8833,1.8836,1.884,1.8828,1.8832,1.8836,0,0,0,0,0,0,1.8104,1.8185,1.8196,1.8273,1.8325,1.8396,1.8432,1.8446,1.8502,1.8501,1.8545,1.8561,1.8632,1.8667,1.864,1.8757,1.8747,1.8754,1.8731,1.8735,1.8739,1.8728,1.8649,0,0,0,0,0,1.8108,1.8163,1.8231,1.8292,1.8318,1.837,1.8405,1.8428,1.8484,1.8507,1.8554,1.8608,1.8666,1.8703,1.876,1.8835,1.8851,1.8865,1.8868,1.887,1.8876,1.8917,1.8923,1.8853,1.8853,1.8853,0,0,1.8118,1.817,1.8202,1.829,1.8333,1.8388,1.8389,1.8447,1.8488,1.8516,1.8587,1.8624,1.8687,1.8761,1.8796,1.8793,1.8899,1.8875,1.8876,1.8881,1.8921,1.8927,1.8933,1.8856,1.8855,1.8855,0,0,1.8164,1.8209,1.8264,1.8307,1.8373,1.8407,1.842,1.849,1.8515,1.8587,1.8608,1.8658,1.8757,1.8801,1.8836,1.8897,1.891,1.8915,1.8931,1.897,1.8975,1.8981,1.9001,1.9008,1.892,1.892,1.892,0,1.8169,1.8252,1.8291,1.8348,1.8386,1.8413,1.8468,1.8508,1.8589,1.8614,1.8609,1.8733,1.8777,1.8861,1.8876,1.8904,1.8919,1.8906,1.8972,1.8977,1.8982,1.9002,1.901,1.892,1.892,1.892,1.892,0,1.8253,1.8311,1.8348,1.8424,1.8466,1.8522,1.8569,1.8607,1.8627,1.8661,1.8734,1.8788,1.8856,1.8878,1.8899,1.8964,1.896,1.8963,1.8953,1.8988,1.9007,1.9016,1.892,1.892,1.892,1.892,0,0,1.829,1.8387,1.8399,1.8433,1.8507,1.8552,1.8609,1.8675,1.8706,1.8761,1.8809,1.8891,1.8894,1.8934,1.896,1.8994,1.9037,1.8993,1.8995,1.8998,1.9111,1.9107,1.9115,1.9047,1.9048,1.905,1.9105,0,1.8344,1.8446,1.8482,1.8566,1.8619,1.8645,1.8695,1.8745,1.8779,1.8829,1.8867,1.8924,1.8924,1.8948,1.8983,1.9024,1.906,1.9021,1.9091,1.9093,1.9072,1.9126,1.9122,1.9172,1.9113,1.9114,1.9115,0,1.842,1.8475,1.8564,1.863,1.8653,1.8697,1.8759,1.8807,1.8864,1.8886,1.893,1.8953,1.9013,1.9001,1.9083,1.9056,1.9087,1.9111,1.9114,1.9121,1.9105,1.9132,1.9189,1.9196,1.9128,1.9127,1.9126,0,1.8435,1.8532,1.8597,1.8626,1.8705,1.8735,1.8769,1.8825,1.8862,1.8916,1.894,1.9002,1.9035,1.9081,1.912,1.9107,1.9199,1.919,1.9218,1.9217,1.9235,1.9233,1.9295,1.9257,1.9257,1.9257,1.9257,0,1.8491,1.8544,1.8605,1.8645,1.8705,1.8746,1.8804,1.884,1.8889,1.8937,1.8964,1.9007,1.9056,1.9106,1.9137,1.92,1.9215,1.9234,1.9241,1.9231,1.9228,1.9251,1.9248,1.9259,1.9258,1.9258,1.9258,0,1.8518,1.8561,1.8634,1.8702,1.8721,1.8762,1.882,1.886,1.8895,1.8954,1.897,1.9025,1.9085,1.9128,1.9206,1.9227,1.9294,1.9302,1.9274,1.9277,1.9302,1.9299,1.938,1.9392,1.9347,1.9348,1.9348,0,1.8549,1.859,1.8663,1.8696,1.873,1.8784,1.8821,1.8863,1.8901,1.8968,1.8999,1.9061,1.9113,1.9207,1.9254,1.9313,1.9322,1.9347,1.9331,1.9319,1.9321,1.9317,1.9321,1.9348,1.9349,1.9349,1.9349,0,1.86,1.8619,1.8672,1.8732,1.8775,1.8825,1.8874,1.89,1.895,1.8991,1.9053,1.9093,1.9171,1.9232,1.9296,1.9331,1.9348,1.9354,1.9363,1.9352,1.9333,1.9342,1.9278,1.9351,1.9351,1.9351,1.9351,1.9351,1.8629,1.8666,1.8723,1.878,1.8822,1.8867,1.8908,1.8947,1.8999,1.9066,1.9088,1.9151,1.9206,1.9294,1.9329,1.9379,1.9378,1.9392,1.9396,1.9398,1.9396,1.9326,1.9391,1.9391,1.9391,1.9391,1.9391,0,1.8679,1.8717,1.8769,1.8838,1.8883,1.8895,1.8951,1.8987,1.9042,1.9092,1.9142,1.9212,1.9271,1.9322,1.9383,1.9412,1.9422,1.9427,1.9424,1.9432,1.9395,1.938,1.9418,1.9418,1.9418,1.9418,1.9418,1.9418,1.8711,1.8774,1.88,1.8884,1.8921,1.8983,1.9013,1.9055,1.9095,1.9172,1.922,1.9253,1.9304,1.9368,1.9422,1.9436,1.9456,1.9459,1.9474,1.9438,1.9435,1.9432,1.9418,1.9463,1.9464,1.9507,1.9508,1.9508]},{"header":{"parameterUnit":"m.s-1","parameterCategory":1,"la1":30.2991,"la2":30.254,"lo1":-89.0895,"lo2":-89.0444,"dy":0.0017,"dx":0.0017,"nx":28,"ny":28,"refTime":"2024-08-12T09:00:00:Z","depth":0,"parameterNumber":3,"parameterNumberName":"V-component_of_WINDS"},"data":[0,0,0,0,0,0,0,0,0,0,0,0,0,0,0,0,0,0,0,0,0,0,0,0,0,0,0,0,0,0,0,0,0,0,0,0,0,0,0,0,0,0,0,0,0,0,0,0,0,0,0,0,0,0,0,0,0,0,4.3341,4.334,0,4.3269,4.3268,4.3267,4.3176,4.3175,4.3174,4.3172,4.3096,4.3095,4.3094,0,0,0,0,0,0,0,0,0,0,0,0,0,4.3399,4.3398,4.3341,4.334,4.3339,4.3269,4.3268,4.3267,4.3177,4.3175,4.3173,4.3172,4.3096,4.3095,4.3094,0,0,0,0,0,0,0,0,0,0,0,0,0,4.3355,4.3398,4.3341,4.3286,4.328,4.3269,4.3268,4.3266,4.3177,4.3175,4.3173,4.3171,4.3096,4.3095,4.3094,4.3131,0,0,4.3091,4.3091,0,0,0,0,0,0,0,0,4.3358,4.3353,4.3295,4.329,4.3283,4.3229,4.326,4.3221,4.3178,4.3216,4.3172,4.317,4.3142,4.3137,4.3128,4.3127,4.3124,4.3091,4.309,4.309,4.309,0,0,0,0,0,0,0,4.3361,4.3355,4.3312,4.3294,4.3287,4.3264,4.3255,4.3252,4.3192,4.3213,4.3206,4.3199,4.3138,4.3129,4.3125,4.3123,4.3091,4.309,4.3089,4.3089,4.3146,4.3149,0,0,0,0,0,0,4.3372,4.3359,4.3314,4.331,4.3316,4.3265,4.3255,4.3249,4.3192,4.3181,4.3201,4.3195,4.3132,4.3127,4.3122,4.316,4.309,4.3089,4.3088,4.3144,4.3147,4.3149,0,0,0,0,0,0,4.3374,4.3369,4.3317,4.3332,4.3324,4.3266,4.326,4.3249,4.3239,4.3183,4.3171,4.3203,4.313,4.3124,4.3129,4.3156,4.3088,4.3087,4.3142,4.3145,4.3148,4.3237,0,0,0,0,0,0,4.3376,4.337,4.3384,4.3334,4.3324,4.3327,4.3261,4.3249,4.3238,4.323,4.3181,4.3171,4.3128,4.3131,4.3128,4.3154,4.3087,4.3139,4.3143,4.3147,4.3232,4.3243,4.3253,0,0,0,0,0,4.3378,4.3412,4.3385,4.3381,4.334,4.3328,4.3323,4.3273,4.3241,4.3254,4.3217,4.3173,4.3154,4.3133,4.3128,4.3154,4.3137,4.3142,4.3147,4.3227,4.3241,4.3253,0,0,0,0,0,0,4.3467,4.3404,4.3374,4.3393,4.3367,4.3313,4.3328,4.3289,4.3271,4.3264,4.3202,4.3192,4.3204,4.318,4.3157,4.3185,4.3139,4.3143,4.3201,4.3214,4.3225,4.323,4.3086,0,0,0,0,0,4.3489,4.3485,4.343,4.3452,4.344,4.3387,4.338,4.3344,4.3314,4.3302,4.3266,4.3238,4.3225,4.3218,4.3204,4.3228,4.3215,4.3243,4.3254,4.3263,4.3267,4.3276,4.3288,4.3165,4.3165,4.3165,0,0,4.3533,4.3499,4.35,4.3469,4.3444,4.3441,4.3378,4.3378,4.3374,4.3302,4.3304,4.3277,4.3241,4.3256,4.326,4.3235,4.3298,4.3269,4.3277,4.3276,4.3283,4.3294,4.3305,4.3169,4.3168,4.3167,0,0,4.3613,4.3587,4.3601,4.3578,4.3542,4.3506,4.351,4.3462,4.3442,4.3444,4.3389,4.3383,4.3364,4.334,4.3326,4.3397,4.3355,4.3394,4.3449,4.3459,4.3469,4.3477,4.3501,4.3511,4.3398,4.3398,4.3398,0,4.3673,4.3666,4.3614,4.3616,4.3604,4.3539,4.3552,4.3532,4.3493,4.3486,4.3459,4.3432,4.3404,4.3411,4.3428,4.3419,4.342,4.3399,4.3472,4.348,4.3486,4.3509,4.3518,4.3403,4.3403,4.3402,4.3402,0,4.3741,4.3738,4.3754,4.3718,4.3708,4.3716,4.3664,4.3659,4.3624,4.359,4.3592,4.3556,4.3533,4.3532,4.3497,4.3534,4.352,4.3484,4.3435,4.3504,4.3524,4.3532,4.341,4.3408,4.3407,4.3406,0,0,4.3874,4.3809,4.3816,4.3799,4.3754,4.375,4.3755,4.3733,4.373,4.3705,4.3707,4.3691,4.3657,4.3641,4.3603,4.3612,4.3669,4.3574,4.3572,4.3592,4.3706,4.3733,4.3744,4.3641,4.3643,4.3644,4.3709,0,4.3944,4.395,4.3903,4.3921,4.3916,4.3854,4.3859,4.3831,4.38,4.3791,4.3756,4.3746,4.3702,4.3692,4.3698,4.3661,4.3691,4.3656,4.3641,4.3641,4.3651,4.3755,4.3784,4.3846,4.3716,4.3717,4.3718,0,4.4027,4.4008,4.4026,4.398,4.3976,4.3981,4.3957,4.3949,4.3917,4.3893,4.3875,4.3832,4.3832,4.3788,4.3786,4.3763,4.3754,4.3735,4.3737,4.3733,4.3684,4.3753,4.3865,4.3875,4.373,4.3729,4.3728,0,4.4121,4.41,4.4107,4.4095,4.4042,4.4046,4.4024,4.3989,4.3979,4.3957,4.395,4.3928,4.3916,4.39,4.3852,4.3824,4.3856,4.3807,4.3835,4.3836,4.3844,4.3844,4.3956,4.384,4.384,4.384,4.384,0,4.4204,4.4218,4.4149,4.4153,4.4166,4.4111,4.4125,4.4096,4.4066,4.4063,4.4008,4.4006,4.3943,4.3934,4.3896,4.39,4.3895,4.3875,4.3865,4.388,4.3883,4.3873,4.3867,4.3842,4.3842,4.3841,4.3841,0,4.4311,4.4266,4.427,4.422,4.4207,4.4219,4.4175,4.4176,4.4142,4.4139,4.4135,4.4081,4.4068,4.4018,4.3992,4.3966,4.3982,4.3963,4.3994,4.3987,4.4017,4.4015,4.4127,4.4138,4.4016,4.4017,4.4018,0,4.4367,4.4376,4.4327,4.4321,4.4302,4.4294,4.4283,4.4229,4.422,4.4183,4.4189,4.4171,4.4154,4.4135,4.4092,4.4072,4.4051,4.4091,4.4047,4.4062,4.405,4.405,4.405,4.4101,4.4102,4.4104,4.4105,0,4.447,4.4447,4.4434,4.4414,4.4403,4.4384,4.4361,4.436,4.4299,4.4292,4.4277,4.4264,4.4238,4.422,4.4193,4.4168,4.4126,4.4119,4.4124,4.4139,4.4157,4.4147,4.4019,4.4117,4.4115,4.4114,4.4114,4.4113,4.4552,4.4557,4.4523,4.4511,4.4488,4.4469,4.4468,4.4433,4.4421,4.4396,4.4365,4.4354,4.432,4.4279,4.4258,4.4248,4.4225,4.4233,4.4235,4.4237,4.4244,4.4159,4.4243,4.4242,4.4242,4.4242,4.4241,0,4.4652,4.4627,4.4617,4.4587,4.4577,4.454,4.4513,4.4506,4.4498,4.4471,4.4455,4.4438,4.4421,4.4377,4.4355,4.4356,4.4336,4.4352,4.4351,4.4346,4.4267,4.4264,4.4368,4.4368,4.4368,4.4368,4.4368,4.4368,4.4703,4.4709,4.4682,4.4676,4.465,4.4641,4.4629,4.461,4.4587,4.4572,4.4557,4.4529,4.4495,4.447,4.4452,4.4439,4.4433,4.4455,4.4437,4.4363,4.4351,4.434,4.4337,4.4455,4.4455,4.4516,4.4517,4.4517]}]]